Time_in_sec,Latitude,Longitude,Altitude,Nbsat,valid_data
1312467687.16304922,47.37638092,8.55010891,502.60534668,4,1
1312467947.52318478,47.37633896,8.55018425,506.78436279,3,1
1312467947.57109737,47.37633896,8.55018520,506.76797485,3,1
1312467947.62310648,47.37633896,8.55018520,506.75152588,3,1
1312467947.66422534,47.37633896,8.55018520,506.73507690,3,1
1312467947.72320008,47.37633896,8.55018520,506.72189331,3,1
1312467947.77112341,47.37633896,8.55018616,506.61791992,3,1
1312467947.82414937,47.37633896,8.55018711,506.60113525,3,1
1312467947.87202573,47.37633896,8.55018711,506.58432007,3,1
1312467947.92309880,47.37633896,8.55018711,506.56747437,3,1
1312467947.97108126,47.37633896,8.55018711,506.55059814,3,1
1312467948.02327180,47.37633896,8.55018902,506.44311523,3,1
1312467948.07110333,47.37633896,8.55018902,506.42593384,3,1
1312467948.12319374,47.37633896,8.55018997,506.40872192,3,1
1312467948.17119050,47.37633896,8.55018997,506.39144897,3,1
1312467948.22308469,47.37633896,8.55018997,506.37414551,3,1
1312467948.27221608,47.37633896,8.55019093,506.26446533,3,1
1312467948.32320690,47.37633896,8.55019093,506.24682617,3,1
1312467948.37120414,47.37633896,8.55019093,506.22918701,3,1
1312467948.42308092,47.37633896,8.55019188,506.21151733,3,1
1312467948.47109461,47.37633896,8.55019188,506.19378662,3,1
1312467948.52309895,47.37633896,8.55019379,506.07940674,3,1
1312467948.57111239,47.37633896,8.55019379,506.06134033,3,1
1312467948.62305927,47.37633896,8.55019379,506.04318237,3,1
1312467948.66320062,47.37633896,8.55019474,506.02502441,3,1
1312467948.72306299,47.37633896,8.55019474,506.01046753,3,1
1312467948.77220511,47.37633896,8.55019665,505.90228271,3,1
1312467948.82408977,47.37633896,8.55019665,505.88378906,3,1
1312467948.87107897,47.37633896,8.55019665,505.86526489,3,1
1312467948.92310190,47.37633896,8.55019760,505.84671021,3,1
1312467948.97222519,47.37633896,8.55019760,505.82812500,3,1
1312467949.02306175,47.37634277,8.55019951,505.72210693,3,1
1312467949.07121062,47.37634277,8.55019951,505.70318604,3,1
1312467949.12310123,47.37634277,8.55019951,505.68423462,3,1
1312467949.16332889,47.37633896,8.55019951,505.66522217,3,1
1312467949.22317243,47.37633896,8.55020046,505.64999390,3,1
1312467949.27107811,47.37634277,8.55020142,505.53979492,3,1
1312467949.32304955,47.37634277,8.55020142,505.52044678,3,1
1312467949.37112594,47.37633896,8.55020142,505.50106812,3,1
1312467949.42032862,47.37633896,8.55020237,505.48165894,3,1
1312467949.47186756,47.37633896,8.55020237,505.46221924,3,1
1312467949.52006745,47.37634277,8.55020428,505.35791016,3,1
1312467949.57118654,47.37634277,8.55020428,505.33819580,3,1
1312467949.62415576,47.37634277,8.55020428,505.31842041,3,1
1312467949.66018677,47.37634277,8.55020523,505.29861450,3,1
1312467949.72307777,47.37634277,8.55020523,505.28277588,3,1
1312467949.77110577,47.37634277,8.55020523,505.17007446,3,1
1312467949.82052255,47.37634277,8.55020523,505.14996338,3,1
1312467949.87111020,47.37634277,8.55020523,505.12979126,3,1
1312467949.91221786,47.37634277,8.55020618,505.10955811,3,1
1312467949.97221613,47.37634277,8.55020618,505.09338379,3,1
1312467950.02306342,47.37634277,8.55020618,504.97839355,3,1
1312467950.07108974,47.37634277,8.55020618,504.95785522,3,1
1312467950.12312579,47.37634277,8.55020714,504.93728638,3,1
1312467950.17111015,47.37634277,8.55020714,504.91665649,3,1
1312467950.22306061,47.37634277,8.55020714,504.89602661,3,1
1312467950.27111363,47.37634277,8.55020809,504.77636719,3,1
1312467950.32408905,47.37634277,8.55020809,504.75537109,3,1
1312467950.37170291,47.37634277,8.55020905,504.73431396,3,1
1312467950.42309427,47.37634277,8.55020905,504.71325684,3,1
1312467950.47206950,47.37634277,8.55020905,504.69213867,3,1
1312467950.52308106,47.37634277,8.55020905,504.56567383,3,1
1312467950.57111287,47.37634277,8.55021000,504.54415894,3,1
1312467950.62308478,47.37634277,8.55021000,504.52264404,3,1
1312467950.66422749,47.37634277,8.55021000,504.50109863,3,1
1312467950.72311854,47.37634277,8.55021095,504.48382568,3,1
1312467950.77108884,47.37634659,8.55020809,504.35070801,3,1
1312467950.82318830,47.37634659,8.55020905,504.32873535,3,1
1312467950.87109637,47.37634659,8.55020905,504.30676270,3,1
1312467950.92354536,47.37634659,8.55020905,504.28475952,3,1
1312467950.97118998,47.37634659,8.55020905,504.26269531,3,1
1312467951.02408195,47.37634659,8.55020809,504.09841919,3,1
1312467951.07162142,47.37634659,8.55020905,504.07586670,3,1
1312467951.12319469,47.37634659,8.55020905,504.05328369,3,1
1312467951.17107606,47.37634659,8.55020905,504.03063965,3,1
1312467951.22319221,47.37634659,8.55020905,504.00796509,3,1
1312467951.27207184,47.37634659,8.55020809,503.82794189,3,1
1312467951.32311344,47.37634659,8.55020809,503.80471802,3,1
1312467951.37120461,47.37634659,8.55020809,503.78143311,3,1
1312467951.42321587,47.37634659,8.55020809,503.75811768,3,1
1312467951.47108579,47.37634659,8.55020905,503.73477173,3,1
1312467951.52309465,47.37635040,8.55020714,503.54330444,3,1
1312467951.57118940,47.37635040,8.55020809,503.51937866,3,1
1312467951.62309837,47.37634659,8.55020809,503.49539185,3,1
1312467951.66313410,47.37634659,8.55020809,503.47134399,3,1
1312467951.72315121,47.37634659,8.55020809,503.45211792,3,1
1312467951.77220488,47.37635040,8.55020714,503.24407959,3,1
1312467951.82308030,47.37635040,8.55020714,503.21936035,3,1
1312467951.87178707,47.37635040,8.55020809,503.19464111,3,1
1312467951.91121578,47.37635040,8.55020809,503.16989136,3,1
1312467951.97122049,47.37635040,8.55020809,503.15005493,3,1
1312467952.02393579,47.37635422,8.55020714,502.94155884,3,1
1312467952.07207012,47.37635422,8.55020714,502.91613770,3,1
1312467952.12313080,47.37635422,8.55020714,502.89068604,3,1
1312467952.16019011,47.37635422,8.55020714,502.86517334,3,1
1312467952.22347522,47.37635422,8.55020714,502.84475708,3,1
1312467952.27217007,47.37635803,8.55020714,502.63684082,3,1
1312467952.32320786,47.37635803,8.55020714,502.61065674,3,1
1312467952.37219310,47.37635803,8.55020714,502.58444214,3,1
1312467952.42402053,47.37635803,8.55020809,502.55819702,3,1
1312467952.47106051,47.37635803,8.55020809,502.53189087,3,1
1312467952.52351165,47.37635803,8.55020714,502.30856323,3,1
1312467952.57207394,47.37635803,8.55020714,502.28152466,3,1
1312467952.62370038,47.37635803,8.55020809,502.25445557,3,1
1312467952.65993357,47.37635803,8.55020809,502.22735596,3,1
1312467952.72353864,47.37635803,8.55020809,502.20562744,3,1
1312467952.77106690,47.37636185,8.55020809,501.96655273,3,1
1312467952.82313514,47.37635803,8.55020809,501.93859863,3,1
1312467952.87108135,47.37635803,8.55020809,501.91058350,3,1
1312467952.92346478,47.37635803,8.55020809,501.88253784,3,1
1312467952.97111130,47.37635803,8.55020809,501.85446167,4,1
1312467953.02306223,47.37636185,8.55020809,501.62719727,4,1
1312467953.07111120,47.37636185,8.55020809,501.59844971,4,1
1312467953.12332487,47.37636185,8.55020809,501.56964111,4,1
1312467953.17111540,47.37636185,8.55020809,501.54083252,4,1
1312467953.22310638,47.37636185,8.55020809,501.51199341,4,1
1312467953.27107382,47.37636185,8.55020714,501.28033447,4,1
1312467953.32388186,47.37636185,8.55020714,501.25070190,4,1
1312467953.37221694,47.37636185,8.55020714,501.22106934,4,1
1312467953.42468810,47.37636185,8.55020714,501.19140625,4,1
1312467953.47110057,47.37636185,8.55020714,501.16171265,4,1
1312467953.52320457,47.37636566,8.55020618,500.95108032,4,1
1312467953.57109165,47.37636566,8.55020618,500.92074585,4,1
1312467953.62309456,47.37636566,8.55020618,500.89035034,4,1
1312467953.66422963,47.37636566,8.55020618,500.85992432,4,1
1312467953.72307706,47.37636566,8.55020618,500.83557129,4,1
1312467953.77114153,47.37636948,8.55020428,500.62625122,4,1
1312467953.82468677,47.37636948,8.55020428,500.59518433,4,1
1312467953.87119031,47.37636948,8.55020428,500.56405640,4,1
1312467953.92408252,47.37636948,8.55020428,500.53292847,4,1
1312467953.97111320,47.37636948,8.55020428,500.50173950,4,1
1312467954.02309608,47.37636948,8.55020332,500.30371094,4,1
1312467954.07108021,47.37636948,8.55020332,500.27191162,4,1
1312467954.12364864,47.37636948,8.55020332,500.24008179,4,1
1312467954.16420794,47.37636948,8.55020332,500.20822144,4,1
1312467954.22306943,47.37636948,8.55020332,500.18273926,4,1
1312467954.27220726,47.37637329,8.55020237,499.98083496,4,1
1312467954.32409763,47.37637329,8.55020237,499.94833374,4,1
1312467954.37211752,47.37637329,8.55020142,499.91583252,4,1
1312467954.42038774,47.37637329,8.55020142,499.88327026,4,1
1312467954.47109485,47.37637329,8.55020142,499.85067749,4,1
1312467954.52366757,47.37637329,8.55020142,499.65505981,4,1
1312467954.57163072,47.37637329,8.55020142,499.62185669,4,1
1312467954.62408233,47.37637329,8.55020046,499.58865356,4,1
1312467954.67120242,47.37637329,8.55020046,499.55541992,4,1
1312467954.72340584,47.37637711,8.55019951,499.33862305,4,1
1312467954.77120662,47.37637711,8.55020046,499.32843018,4,1
1312467954.82312369,47.37637711,8.55020046,499.29455566,4,1
1312467954.87108707,47.37637711,8.55020046,499.26065063,4,1
1312467954.92025924,47.37637711,8.55020046,499.22668457,4,1
1312467954.97112513,47.37637711,8.55020046,499.19268799,3,1
1312467955.02307415,47.37637711,8.55019951,498.98983765,3,1
1312467955.07218409,47.37637711,8.55019951,498.95520020,3,1
1312467955.12344146,47.37637711,8.55019951,498.92056274,3,1
1312467955.16322112,47.37637711,8.55019951,498.88586426,3,1
1312467955.22317696,47.37637711,8.55019951,498.85809326,3,1
1312467955.27114201,47.37638092,8.55019951,498.65408325,3,1
1312467955.32313538,47.37638092,8.55019951,498.61877441,3,1
1312467955.37112761,47.37638092,8.55019951,498.58346558,3,1
1312467955.42325091,47.37638092,8.55019951,498.54809570,3,1
1312467955.47172999,47.37638092,8.55019951,498.51272583,3,1
1312467955.52306628,47.37638474,8.55019951,498.31225586,3,1
1312467955.57112479,47.37638474,8.55019951,498.27627563,3,1
1312467955.62310195,47.37638474,8.55019855,498.24023438,3,1
1312467955.67205572,47.37638474,8.55019855,498.20416260,3,1
1312467955.72012997,47.37638474,8.55019855,497.98620605,3,1
1312467955.77111769,47.37638474,8.55019855,497.96395874,3,1
1312467955.82011533,47.37638474,8.55019855,497.92721558,3,1
1312467955.87112546,47.37638474,8.55019855,497.89047241,3,1
1312467955.92309093,47.37638474,8.55019855,497.85366821,3,1
1312467955.97106743,47.37638474,8.55019855,497.81683350,3,1
1312467956.02311492,47.37638855,8.55019760,497.61862183,3,1
1312467956.07106638,47.37638855,8.55019760,497.58117676,3,1
1312467956.12327433,47.37638855,8.55019760,497.54370117,3,1
1312467956.16422153,47.37638855,8.55019760,497.50619507,3,1
1312467956.22313285,47.37638855,8.55019760,497.47616577,3,1
1312467956.27119398,47.37638855,8.55019760,497.27450562,3,1
1312467956.32361078,47.37638855,8.55019760,497.23638916,3,1
1312467956.37212682,47.37638855,8.55019760,497.19824219,3,1
1312467956.42361093,47.37638855,8.55019760,497.16009521,3,1
1312467956.47110367,47.37638855,8.55019760,497.12185669,3,1
1312467956.52343392,47.37639236,8.55019665,496.92550659,3,1
1312467956.57112479,47.37639236,8.55019665,496.88668823,3,1
1312467956.62318921,47.37639236,8.55019665,496.84780884,3,1
1312467956.67119241,47.37639236,8.55019665,496.80892944,3,1
1312467956.72320557,47.37639618,8.55019569,496.60400391,3,1
1312467956.77109361,47.37639618,8.55019569,496.58456421,3,1
1312467956.82310224,47.37639618,8.55019569,496.54507446,3,1
1312467956.87207937,47.37639618,8.55019569,496.50558472,3,1
1312467956.92309785,47.37639618,8.55019569,496.46603394,3,1
1312467956.97111750,47.37639618,8.55019569,496.42645264,3,1
1312467957.02364898,47.37639618,8.55019569,496.24801636,3,1
1312467957.07109833,47.37639618,8.55019569,496.20791626,3,1
1312467957.12307978,47.37639618,8.55019569,496.16781616,3,1
1312467957.16310239,47.37639618,8.55019569,496.12765503,3,1
1312467957.22310257,47.37639618,8.55019474,496.09552002,3,1
1312467957.27206182,47.37639999,8.55019474,495.90393066,3,1
1312467957.32312965,47.37639999,8.55019474,495.86322021,3,1
1312467957.37119770,47.37639999,8.55019474,495.82247925,3,1
1312467957.42304850,47.37639999,8.55019379,495.78173828,3,1
1312467957.47111535,47.37639999,8.55019379,495.74093628,3,1
1312467957.52305961,47.37639999,8.55019379,495.56579590,3,1
1312467957.57112741,47.37639999,8.55019379,495.52450562,3,1
1312467957.62340188,47.37639999,8.55019379,495.48318481,3,1
1312467957.67110276,47.37639999,8.55019379,495.44183350,3,1
1312467957.72032285,47.37640381,8.55019283,495.25790405,3,1
1312467957.77111506,47.37640381,8.55019379,495.24020386,3,1
1312467957.82328391,47.37640381,8.55019379,495.19839478,3,1
1312467957.87119436,47.37640381,8.55019379,495.15652466,3,1
1312467957.92353320,47.37640381,8.55019379,495.11465454,3,1
1312467957.97120571,47.37640381,8.55019283,495.07272339,3,1
1312467958.02319217,47.37640381,8.55019283,494.91601562,3,1
1312467958.07207799,47.37640381,8.55019283,494.87368774,3,1
1312467958.12410879,47.37640381,8.55019283,494.83129883,3,1
1312467958.16340733,47.37640381,8.55019283,494.78884888,3,1
1312467958.22313261,47.37640381,8.55019283,494.75488281,3,1
1312467958.27220654,47.37640381,8.55019283,494.60699463,3,1
1312467958.32367849,47.37640381,8.55019283,494.56417847,3,1
1312467958.37220573,47.37640381,8.55019283,494.52133179,3,1
1312467958.42332435,47.37640381,8.55019283,494.47845459,3,1
1312467958.47207355,47.37640381,8.55019283,494.43551636,3,1
1312467958.52309012,47.37640762,8.55019283,494.30368042,3,1
1312467958.57217216,47.37640762,8.55019283,494.26040649,3,1
1312467958.62309384,47.37640762,8.55019283,494.21710205,3,1
1312467958.67111421,47.37640762,8.55019283,494.17373657,3,1
1312467958.72308969,47.37640762,8.55019283,494.13034058,3,1
1312467958.77111578,47.37640762,8.55019188,494.01962280,3,1
1312467958.82312632,47.37640762,8.55019188,493.97598267,3,1
1312467958.87109947,47.37640762,8.55019188,493.93228149,3,1
1312467958.92709184,47.37640762,8.55019188,493.88854980,3,1
1312467958.97111130,47.37640762,8.55019188,493.84478760,2,1
1312467959.02346110,47.37640762,8.55018997,493.74404907,2,1
1312467959.07110143,47.37640762,8.55018997,493.70007324,2,1
1312467959.12407899,47.37640762,8.55018997,493.65600586,2,1
1312467959.16421342,47.37640762,8.55018902,493.61193848,2,1
1312467959.22412395,47.37640762,8.55018902,493.57666016,2,1
1312467959.27108669,47.37640762,8.55018902,493.47915649,2,1
1312467959.32409859,47.37640762,8.55018902,493.43493652,2,1
1312467959.37111545,47.37640762,8.55018902,493.39065552,2,1
1312467959.42312384,47.37640762,8.55018902,493.34631348,2,1
1312467959.47181416,47.37640762,8.55018902,493.30194092,2,1
1312467959.52315879,47.37641144,8.55018902,493.22299194,2,1
1312467959.57221723,47.37641144,8.55018902,493.17852783,2,1
1312467959.62319469,47.37641144,8.55018902,493.13403320,2,1
1312467959.67108774,47.37641144,8.55018902,493.08947754,2,1
1312467959.72307825,47.37641144,8.55018806,493.00006104,2,1
1312467959.77112293,47.37641144,8.55018711,492.97702026,2,1
1312467959.82307887,47.37641144,8.55018711,492.93237305,2,1
1312467959.87111211,47.37641144,8.55018711,492.88769531,2,1
1312467959.92355013,47.37641144,8.55018711,492.84295654,2,1
1312467959.97107053,47.37641144,8.55018711,492.79821777,2,1
1312467960.02315044,47.37641144,8.55018520,492.73950195,2,1
1312467960.07209682,47.37641144,8.55018520,492.69470215,2,1
1312467960.12320733,47.37641144,8.55018425,492.64987183,2,1
1312467960.16421914,47.37641144,8.55018425,492.60498047,2,1
1312467960.22340155,47.37641144,8.55018425,492.56903076,2,1
1312467960.27119136,47.37641144,8.55018425,492.51522827,2,1
1312467960.32324195,47.37641144,8.55018425,492.47033691,2,1
1312467960.37108755,47.37641144,8.55018425,492.42538452,2,1
1312467960.42707276,47.37641144,8.55018425,492.38037109,2,1
1312467960.47263312,47.37641144,8.55018330,492.33535767,2,1
1312467960.52374411,47.37641144,8.55018425,492.30664062,2,1
1312467960.57111168,47.37641144,8.55018425,492.26168823,2,1
1312467960.62308645,47.37641144,8.55018425,492.21667480,2,1
1312467960.67112398,47.37641144,8.55018330,492.17166138,2,1
1312467960.72310543,47.37641144,8.55018330,492.13616943,2,1
1312467960.77219772,47.37641144,8.55018330,492.11587524,2,1
1312467960.82310867,47.37641144,8.55018330,492.07098389,2,1
1312467960.87111712,47.37641144,8.55018330,492.02603149,2,1
1312467960.92121315,47.37641144,8.55018330,491.98107910,2,1
1312467960.97214890,47.37641144,8.55018330,491.93606567,2,1
1312467961.02414918,47.37641144,8.55018330,491.93560791,2,1
1312467961.07220531,47.37641144,8.55018330,491.89077759,2,1
1312467961.12019515,47.37641144,8.55018330,491.84591675,2,1
1312467961.17121816,47.37641144,8.55018330,491.80102539,2,1
1312467961.22313690,47.37641144,8.55018234,491.77783203,2,1
1312467961.27207732,47.37641144,8.55018234,491.75640869,2,1
1312467961.32021713,47.37641144,8.55018234,491.71166992,2,1
1312467961.37122726,47.37641144,8.55018234,491.66693115,2,1
1312467961.42707062,47.37641144,8.55018234,491.62216187,2,1
1312467961.47113705,47.37641144,8.55018234,491.57733154,2,1
1312467961.52012563,47.37640762,8.55018044,491.59051514,2,1
1312467961.57112527,47.37640762,8.55018044,491.54598999,2,1
1312467961.62308931,47.37640762,8.55018044,491.50137329,2,1
1312467961.67106581,47.37640762,8.55018044,491.45675659,2,1
1312467961.72011352,47.37640762,8.55017948,491.41204834,2,1
1312467961.77211237,47.37640762,8.55017757,491.43692017,2,1
1312467961.82363772,47.37640762,8.55017757,491.39254761,2,1
1312467961.87213874,47.37640762,8.55017757,491.34811401,2,1
1312467961.92365241,47.37640762,8.55017757,491.30364990,2,1
1312467961.97106624,47.37640762,8.55017757,491.25915527,2,1
1312467962.02359509,47.37640381,8.55017757,491.29913330,2,1
1312467962.07105947,47.37640381,8.55017662,491.25497437,2,1
1312467962.12306952,47.37640381,8.55017662,491.21075439,2,1
1312467962.16409206,47.37640381,8.55017662,491.16650391,2,1
1312467962.22306585,47.37640381,8.55017662,491.13107300,2,1
1312467962.27111459,47.37640381,8.55017567,491.17678833,2,1
1312467962.32306671,47.37640381,8.55017567,491.13290405,2,1
1312467962.37111497,47.37640381,8.55017567,491.08895874,2,1
1312467962.42406964,47.37639999,8.55017567,491.04498291,2,1
1312467962.47108603,47.37639999,8.55017471,491.00094604,2,1
1312467962.52304053,47.37639999,8.55017376,491.07403564,2,1
1312467962.57221127,47.37639999,8.55017376,491.03048706,2,1
1312467962.62319088,47.37639999,8.55017376,490.98693848,2,1
1312467962.67109489,47.37639999,8.55017281,490.94332886,2,1
1312467962.72310233,47.37639999,8.55017281,490.89968872,2,1
1312467962.76314712,47.37639999,8.55017185,490.98858643,2,1
1312467962.82307935,47.37639999,8.55017185,490.95413208,2,1
1312467962.87116289,47.37639618,8.55017185,490.90240479,2,1
1312467962.92314553,47.37639618,8.55017185,490.85928345,2,1
1312467962.97111487,47.37639618,8.55017090,490.81607056,2,1
1312467963.02309942,47.37639618,8.55017090,490.90481567,2,1
1312467963.07112336,47.37639618,8.55016994,490.86215210,2,1
1312467963.12315011,47.37639618,8.55016994,490.81945801,2,1
1312467963.16346455,47.37639618,8.55016994,490.77670288,2,1
1312467963.22424412,47.37639618,8.55016994,490.74249268,2,1
1312467963.27110147,47.37639618,8.55016994,490.83300781,2,1
1312467963.32317114,47.37639236,8.55016994,490.79083252,2,1
1312467963.37112308,47.37639236,8.55016899,490.74856567,2,1
1312467963.42432952,47.37639236,8.55016899,490.70629883,2,1
1312467963.47212958,47.37639236,8.55016899,490.66397095,2,1
1312467963.52319193,47.37639236,8.55016804,490.77426147,2,1
1312467963.57107639,47.37639236,8.55016804,490.73257446,2,1
1312467963.62355399,47.37639236,8.55016804,490.69085693,2,1
1312467963.67106247,47.37639236,8.55016804,490.64910889,2,1
1312467963.72314811,47.37638855,8.55016613,490.73641968,2,1
1312467963.77214217,47.37638855,8.55016708,490.72384644,2,1
1312467963.82307625,47.37638855,8.55016708,490.68270874,2,1
1312467963.87221146,47.37638855,8.55016708,490.64154053,2,1
1312467963.92492938,47.37638855,8.55016613,490.60031128,2,1
1312467963.97111869,47.37638855,8.55016613,490.55905151,2,1
1312467964.02021384,47.37638474,8.55016518,490.67984009,2,1
1312467964.07107401,47.37638474,8.55016422,490.63922119,2,1
1312467964.12020087,47.37638474,8.55016422,490.59857178,2,1
1312467964.17110205,47.37638474,8.55016422,490.55789185,2,1
1312467964.22308517,47.37638092,8.55016232,490.64392090,2,1
1312467964.27122068,47.37638092,8.55016422,490.63256836,2,1
1312467964.32022429,47.37638092,8.55016327,490.59246826,2,1
1312467964.37109184,47.37638092,8.55016327,490.55233765,2,1
1312467964.42010832,47.37638092,8.55016327,490.51217651,2,1
1312467964.47110677,47.37638092,8.55016327,490.47195435,2,1
1312467964.52010798,47.37638092,8.55016136,490.59436035,2,1
1312467964.57118106,47.37638092,8.55016136,490.55487061,2,1
1312467964.62312412,47.37637711,8.55016136,490.51535034,2,1
1312467964.67116570,47.37637711,8.55016136,490.47579956,2,1
1312467964.72011876,47.37637711,8.55015945,490.56970215,2,1
1312467964.77110410,47.37637711,8.55016041,490.56332397,2,1
1312467964.82375741,47.37637711,8.55016041,490.52444458,2,1
1312467964.87109685,47.37637711,8.55015945,490.48553467,2,1
1312467964.92410994,47.37637711,8.55015945,490.44659424,2,1
1312467964.97210884,47.37637329,8.55015945,490.40762329,2,1
1312467965.02414179,47.37637329,8.55015945,490.54315186,2,1
1312467965.07161283,47.37637329,8.55015945,490.50491333,2,1
1312467965.12313342,47.37636948,8.55015945,490.46664429,2,1
1312467965.17211795,47.37636948,8.55015945,490.42834473,2,1
1312467965.22310710,47.37636948,8.55015850,490.38998413,2,1
1312467965.27106547,47.37636566,8.55015659,490.52047729,2,1
1312467965.32307792,47.37636566,8.55015659,490.48278809,2,1
1312467965.37111402,47.37636566,8.55015659,490.44503784,2,1
1312467965.42310286,47.37636566,8.55015659,490.40725708,2,1
1312467965.47223258,47.37636566,8.55015659,490.36938477,2,1
1312467965.52413654,47.37636185,8.55015659,490.49877930,2,1
1312467965.57111692,47.37636185,8.55015659,490.46160889,2,1
1312467965.62307692,47.37636185,8.55015564,490.42440796,2,1
1312467965.66414094,47.37636185,8.55015564,490.38717651,2,1
1312467965.72356701,47.37636185,8.55015564,490.35736084,2,1
1312467965.77120328,47.37635803,8.55015469,490.47781372,2,1
1312467965.82311082,47.37635803,8.55015469,490.44122314,2,1
1312467965.87111402,47.37635803,8.55015469,490.40460205,2,1
1312467965.92318749,47.37635803,8.55015469,490.36791992,2,1
1312467965.97119141,47.37635803,8.55015469,490.33120728,2,1
1312467966.02331138,47.37635422,8.55015469,490.46035767,2,1
1312467966.07112408,47.37635422,8.55015373,490.42431641,2,1
1312467966.12310863,47.37635422,8.55015373,490.38824463,2,1
1312467966.16421485,47.37635422,8.55015373,490.35211182,2,1
1312467966.22308517,47.37635422,8.55015373,490.32318115,2,1
